Weather History for KETB - February, 2013

Change the Weather History Date:

Tuesday, February 12, 2013

  Actual Average Record
Temperature  
Mean Temperature 26 °F -  
Max Temperature 28 °F 29 °F 49 °F (1976)
Min Temperature 23 °F 11 °F -14 °F (1967)
Degree Days  
Heating Degree Days 40    
Moisture  
Dew Point 18 °F    
Average Humidity 73    
Maximum Humidity 86    
Minimum Humidity 64    
Precipitation  
Precipitation 0.00 in - - ()
Sea Level Pressure  
Sea Level Pressure 29.95 in    
Wind  
Wind Speed 11 mph (WSW)    
Max Wind Speed 17 mph    
Max Gust Speed 22 mph    
Visibility 10 miles    
Events Snow    
Averages and records for this station are not official NWS values.
T = Trace of Precipitation, MM = Missing Value Source: NWS Daily Summary

Daily Weather History Graph

Daily Weather History Graph

Search for Another Location

Airport or City:

Trip Planner

Search our weather history database for the weather conditions in past years. The results will help you decide how hot, cold, wet, or windy it might be!

Date:

Astronomy

Feb. 12, 2013 Rise Set
Actual Time 6:54 AM CST 5:19 PM CST
Civil Twilight 6:25 AM CST 5:49 PM CST
Nautical Twilight 5:51 AM CST 6:22 PM CST
Astronomical Twilight 5:18 AM CST 6:55 PM CST
Moon 7:45 AM CST (2/12) 8:27 PM CST (2/12)
Length of Visible Light 11h 24m
Length of Day
10h 24m
Waxing Crescent, 7% of the Moon is Illuminated
Feb 12
Waxing Crescent
Feb 17
First Quarter
Feb 25
Full
Mar 4
Last Quarter
Mar 11
New

Hourly Weather History & Observations

Time (CST) Temp. Windchill Dew Point Humidity Pressure Visibility Wind Dir Wind Speed Gust Speed Precip Events Conditions
12:15 AM 28.4 °F 19.1 °F 21.2 °F 74% 29.94 in 10.0 mi West 10.4 mph 19.6 mph N/A   Overcast
12:35 AM 28.4 °F 19.1 °F 21.2 °F 74% 29.94 in 10.0 mi West 10.4 mph 18.4 mph N/A   Overcast
12:55 AM 28.4 °F 19.1 °F 21.2 °F 74% 29.95 in 10.0 mi West 10.4 mph 17.3 mph N/A   Overcast
1:15 AM 28.4 °F 18.5 °F 19.4 °F 69% 29.95 in 10.0 mi West 11.5 mph 18.4 mph N/A   Overcast
1:35 AM 28.4 °F 19.7 °F 19.4 °F 69% 29.97 in 10.0 mi West 9.2 mph 18.4 mph N/A   Overcast
1:55 AM 28.4 °F 18.0 °F 19.4 °F 69% 29.97 in 10.0 mi West 12.7 mph 16.1 mph N/A   Overcast
2:15 AM 28.4 °F 18.0 °F 19.4 °F 69% 29.98 in 10.0 mi West 12.7 mph 17.3 mph N/A   Overcast
2:55 AM 26.6 °F 15.2 °F 19.4 °F 74% 29.98 in 10.0 mi West 13.8 mph - N/A   Overcast
3:15 AM 26.6 °F 16.8 °F 19.4 °F 74% 29.99 in 10.0 mi West 10.4 mph - N/A   Overcast
3:35 AM 26.6 °F 13.8 °F 19.4 °F 74% 29.99 in 10.0 mi West 17.3 mph - N/A   Overcast
3:55 AM 26.6 °F 14.7 °F 19.4 °F 74% 29.99 in 10.0 mi West 15.0 mph 20.7 mph N/A   Overcast
4:15 AM 26.6 °F 14.7 °F 17.6 °F 69% 30.00 in 10.0 mi WNW 15.0 mph 21.9 mph N/A   Overcast
4:55 AM 26.6 °F 16.8 °F 19.4 °F 74% 30.00 in 10.0 mi WSW 10.4 mph 17.3 mph N/A   Overcast
5:15 AM 24.8 °F 14.0 °F 19.4 °F 80% 30.01 in 10.0 mi WSW 11.5 mph - N/A   Overcast
5:35 AM 23.0 °F 11.7 °F 19.4 °F 86% 30.01 in 10.0 mi WSW 11.5 mph - N/A   Overcast
5:55 AM 23.0 °F 13.1 °F 17.6 °F 80% 30.00 in 10.0 mi WSW 9.2 mph - N/A   Overcast
6:15 AM 23.0 °F 12.4 °F 17.6 °F 80% 30.00 in 10.0 mi West 10.4 mph - N/A   Overcast
6:35 AM 23.0 °F 13.1 °F 17.6 °F 80% 30.01 in 10.0 mi West 9.2 mph 18.4 mph N/A   Overcast
6:55 AM 23.0 °F 11.7 °F 17.6 °F 80% 30.01 in 10.0 mi WNW 11.5 mph - N/A   Overcast
7:15 AM 23.0 °F 13.1 °F 17.6 °F 80% 30.01 in 10.0 mi WNW 9.2 mph - N/A   Overcast
7:35 AM 23.0 °F 13.1 °F 17.6 °F 80% 30.01 in 10.0 mi West 9.2 mph - N/A   Overcast
7:55 AM 23.0 °F 11.1 °F 17.6 °F 80% 30.02 in 10.0 mi West 12.7 mph 16.1 mph N/A   Overcast
8:15 AM 23.0 °F 11.7 °F 15.8 °F 74% 30.03 in 10.0 mi WSW 11.5 mph 18.4 mph N/A Snow Light Snow
8:55 AM 23.0 °F 12.4 °F 17.6 °F 80% 30.04 in 5.0 mi West 10.4 mph 17.3 mph N/A Snow Light Snow
9:15 AM 23.0 °F 11.1 °F 17.6 °F 80% 30.03 in 7.0 mi West 12.7 mph 17.3 mph N/A Snow Light Snow
9:35 AM 23.0 °F 9.2 °F 15.8 °F 74% 30.03 in 10.0 mi West 17.3 mph 21.9 mph N/A Snow Light Snow
9:55 AM 23.0 °F 12.4 °F 14.0 °F 68% 30.02 in 10.0 mi West 10.4 mph 18.4 mph N/A Snow Light Snow
10:15 AM 23.0 °F 12.4 °F 15.8 °F 74% 30.01 in 7.0 mi West 10.4 mph 18.4 mph N/A Snow Light Snow
10:35 AM 24.8 °F 14.0 °F 15.8 °F 69% 30.01 in 10.0 mi West 11.5 mph 17.3 mph N/A Snow Light Snow
10:55 AM 24.8 °F 13.4 °F 15.8 °F 69% 30.01 in 10.0 mi West 12.7 mph - N/A   Overcast
11:15 AM 24.8 °F 15.3 °F 15.8 °F 69% 30.02 in 10.0 mi West 9.2 mph 17.3 mph N/A   Overcast
11:35 AM 24.8 °F 15.3 °F 15.8 °F 69% 30.01 in 10.0 mi WSW 9.2 mph - N/A   Overcast
11:55 AM 26.6 °F 15.2 °F 15.8 °F 64% 30.00 in 10.0 mi West 13.8 mph 20.7 mph N/A   Overcast
12:15 PM 26.6 °F 15.7 °F 15.8 °F 64% 29.99 in 10.0 mi WSW 12.7 mph - N/A   Overcast
12:35 PM 26.6 °F 15.7 °F 17.6 °F 69% 29.97 in 10.0 mi WSW 12.7 mph - N/A   Overcast
12:55 PM 26.6 °F 15.7 °F 17.6 °F 69% 29.97 in 10.0 mi West 12.7 mph - N/A   Overcast
1:15 PM 28.4 °F 17.0 °F 17.6 °F 64% 29.96 in 10.0 mi WSW 15.0 mph 19.6 mph N/A   Overcast
1:55 PM 28.4 °F 17.5 °F 17.6 °F 64% 29.94 in 10.0 mi WSW 13.8 mph 19.6 mph N/A   Scattered Clouds
2:15 PM 26.6 °F 15.7 °F 17.6 °F 69% 29.93 in 10.0 mi WSW 12.7 mph 18.4 mph N/A   Clear
2:35 PM 28.4 °F 17.5 °F 17.6 °F 64% 29.94 in 10.0 mi West 13.8 mph - N/A   Scattered Clouds
2:55 PM 28.4 °F 18.0 °F 17.6 °F 64% 29.94 in 10.0 mi West 12.7 mph - N/A   Scattered Clouds
3:15 PM 28.4 °F 18.5 °F 17.6 °F 64% 29.94 in 10.0 mi WSW 11.5 mph 16.1 mph N/A   Scattered Clouds
3:35 PM 28.4 °F 19.1 °F 17.6 °F 64% 29.94 in 10.0 mi WSW 10.4 mph - N/A   Scattered Clouds
3:55 PM 28.4 °F 17.0 °F 17.6 °F 64% 29.94 in 10.0 mi WSW 15.0 mph 20.7 mph N/A   Clear
4:15 PM 28.4 °F 19.7 °F 17.6 °F 64% 29.92 in 10.0 mi WSW 9.2 mph - N/A   Clear
4:35 PM 28.4 °F 19.7 °F 17.6 °F 64% 29.93 in 10.0 mi WSW 9.2 mph - N/A   Clear
4:55 PM 26.6 °F 18.2 °F 17.6 °F 69% 29.92 in 10.0 mi WSW 8.1 mph - N/A   Clear
5:15 PM 26.6 °F 19.1 °F 17.6 °F 69% 29.92 in 10.0 mi WSW 6.9 mph - N/A   Clear
5:35 PM 26.6 °F 19.1 °F 17.6 °F 69% 29.92 in 10.0 mi SW 6.9 mph - N/A   Clear
5:55 PM 24.8 °F 19.1 °F 17.6 °F 74% 29.91 in 10.0 mi SSW 4.6 mph - N/A   Clear
6:15 PM 24.8 °F 17.9 °F 17.6 °F 74% 29.91 in 10.0 mi SSW 5.8 mph - N/A   Clear
6:35 PM 24.8 °F 17.9 °F 17.6 °F 74% 29.91 in 10.0 mi SSW 5.8 mph - N/A   Clear
6:55 PM 24.8 °F 19.1 °F 17.6 °F 74% 29.91 in 10.0 mi SSW 4.6 mph - N/A   Clear
7:15 PM 23.0 °F 17.0 °F 17.6 °F 80% 29.90 in 10.0 mi SW 4.6 mph - N/A   Clear
8:15 PM 26.6 °F 20.0 °F 19.4 °F 74% 29.89 in 10.0 mi SW 5.8 mph - N/A   Clear
8:35 PM 26.6 °F 18.2 °F 19.4 °F 74% 29.89 in 10.0 mi SW 8.1 mph - N/A   Clear
8:55 PM 26.6 °F 18.2 °F 19.4 °F 74% 29.88 in 10.0 mi SW 8.1 mph - N/A   Clear
9:15 PM 26.6 °F 19.1 °F 19.4 °F 74% 29.88 in 10.0 mi WSW 6.9 mph - N/A   Clear
9:35 PM 26.6 °F 19.1 °F 21.2 °F 80% 29.87 in 10.0 mi WSW 6.9 mph - N/A   Clear
9:55 PM 26.6 °F 18.2 °F 21.2 °F 80% 29.86 in 10.0 mi WSW 8.1 mph - N/A   Clear
10:15 PM 28.4 °F 20.4 °F 21.2 °F 74% 29.85 in 10.0 mi WSW 8.1 mph - N/A   Clear
10:55 PM 26.6 °F 17.5 °F 21.2 °F 80% 29.84 in 10.0 mi WSW 9.2 mph - N/A   Clear
11:15 PM 26.6 °F 18.2 °F 21.2 °F 80% 29.84 in 10.0 mi WSW 8.1 mph - N/A   Clear
11:35 PM 26.6 °F 17.5 °F 21.2 °F 80% 29.84 in 10.0 mi WSW 9.2 mph - N/A   Clear
11:55 PM 26.6 °F 18.2 °F 21.2 °F 80% 29.84 in 10.0 mi SW 8.1 mph - N/A   Clear